Flag Weather past 2 weeks in Glyfada, Greece

Now
50 °F

Broken clouds.


Feels Like: 47 °F
Forecast: 46 / 56 °F
Wind: 7 mph from North

Location: Eleftherios Venizelos International Airport

Current Time: Nov 26, 2014 at 5:13:47 PM

Latest Report: Nov 26, 2014 at 4:50 PM


Visibility: N/A

Pressure: 30.15 "Hg

Humidity: 71%

Dew point: 41 °F

Location of GlyfadaLocation

Historic Weather in Glyfada — Graph

°F

Glyfada temperature yesterday

Maximum temperature yesterday: 54 °F (at 9:50 AM)
Minimum temperature yesterday: 46 °F (at 3:50 AM)
Average temperature yesterday: 50 °F

Past Weeks' High & Low Weather Summary

 TemperatureHumidityPressure
High73 °F (Nov 18, 12:20 PM)100% (Nov 18, 3:50 AM)30.30 "Hg (Nov 18, 3:50 AM)
Low45 °F (Nov 22, 11:20 PM)32% (Nov 20, 12:20 PM)29.77 "Hg (Nov 13, 2:20 PM)
Average58 °F72%30.06 "Hg
* Reported Nov 11 3:20 PM — Nov 26 3:50 PM, Glyfada, Weather by CustomWeather, © 2014

Note: Actual official high and low records may vary slightly from our data, if they occured in-between our weather recording intervals... More about our weather records

Advertising

Glyfada weather history for previous 24 hours

 ConditionsComfort  
Time TempWeatherWind HumidityBarometerVisibility
3:50 PM
Nov 26
50 °FBroken clouds.13 mph67%30.15 "HgN/A
3:20 PM50 °FBroken clouds.13 mph71%30.15 "HgN/A
2:50 PM52 °FPartly sunny.10 mph62%30.15 "HgN/A
2:20 PM52 °FBroken clouds.13 mph62%30.12 "HgN/A
1:50 PM52 °FPartly sunny.9 mph62%30.12 "HgN/A
1:20 PM52 °FPartly sunny.10 mph67%30.15 "HgN/A
12:50 PM52 °FPartly sunny.12 mph62%30.15 "HgN/A
12:20 PM50 °FPartly sunny.14 mph67%30.15 "HgN/A
11:50 AM50 °FPartly sunny.10 mph67%30.15 "HgN/A
11:20 AM50 °FPartly sunny.8 mph71%30.15 "HgN/A
10:50 AM50 °FPartly sunny.7 mph67%30.15 "HgN/A
10:20 AM50 °FDrizzle. Partly sunny.6 mph67%30.15 "HgN/A
9:50 AM50 °FPartly sunny.6 mph67%30.15 "HgN/A
9:20 AM50 °FPassing clouds.5 mph67%30.15 "HgN/A
8:50 AM50 °FPartly sunny.7 mph67%30.15 "HgN/A
8:20 AM48 °FPartly sunny.6 mph71%30.15 "HgN/A
7:50 AM48 °FPartly sunny.6 mph66%30.15 "HgN/A
7:20 AM48 °FPartly sunny.6 mph66%30.12 "HgN/A
6:50 AM48 °FPassing clouds.6 mph66%30.12 "HgN/A
6:20 AM48 °FPassing clouds.7 mph71%30.12 "HgN/A
5:50 AM48 °FPassing clouds.8 mph66%30.12 "HgN/A
5:20 AM48 °FPassing clouds.7 mph66%30.12 "HgN/A
4:50 AM48 °FPassing clouds.9 mph66%30.12 "HgN/A
4:20 AM48 °FPassing clouds.6 mph66%30.12 "HgN/A
3:50 AM46 °FPassing clouds.5 mph71%30.15 "HgN/A
3:20 AM46 °FPassing clouds.5 mph71%30.15 "HgN/A
2:50 AM48 °FPassing clouds.7 mph66%30.15 "HgN/A
2:20 AM48 °FPassing clouds.7 mph66%30.15 "HgN/A
1:50 AM46 °FPassing clouds.6 mph71%30.15 "HgN/A
12:50 AM46 °FPassing clouds.5 mph66%30.18 "HgN/A
12:20 AM46 °FPassing clouds.6 mph71%30.18 "HgN/A
11:50 PM
Nov 25
48 °FPassing clouds.8 mph66%30.18 "HgN/A
11:20 PM46 °FPassing clouds.5 mph76%30.18 "HgN/A
10:20 PM48 °FPassing clouds.5 mph66%30.18 "HgN/A
9:50 PM48 °FPassing clouds.6 mph66%30.21 "HgN/A
9:20 PM46 °FPassing clouds.6 mph71%30.21 "HgN/A
8:50 PM48 °FPassing clouds.6 mph66%30.21 "HgN/A
8:20 PM46 °FPassing clouds.5 mph71%30.21 "HgN/A
7:50 PM48 °FPassing clouds.3 mph71%30.21 "HgN/A
6:50 PM48 °FPassing clouds.3 mph71%30.21 "HgN/A
6:20 PM48 °FPassing clouds.5 mph71%30.21 "HgN/A
5:50 PM48 °FPassing clouds.12 mph71%30.21 "HgN/A
5:20 PM50 °FPassing clouds.10 mph62%30.18 "HgN/A
Weather by CustomWeather, © 2014

See weather overviewHow to use our weather pages